Regional Weather Roundup
Issued by NWS Cleveland, OH

Home | Current Version | Previous Version | Text Only | Print | Product List | Glossary Off
Versions: 1 2 3 4 5 6 7 8 9 10 11 12 13 14 15 16 17 18 19 20 21 22 23 24 25 26 27 28 29 30 31 32 33 34 35 36 37 38 39 40 41 42 43 44 45 46 47 48 49 50

000
ASUS41 KCLE 180200
RWRCLE
OHIO REGIONAL WEATHER ROUNDUP
NATIONAL WEATHER SERVICE WILMINGTON, OH
900 PM EST WED DEC 17 2014

NOTE: "FAIR" INDICATES FEW OR NO CLOUDS BELOW 12,000 FEET WITH NO
SIGNIFICANT WEATHER AND/OR OBSTRUCTIONS TO VISIBILITY.

OHZ001>008-015>018-024>027-034-035-043-044-180300-
   NORTHWEST OHIO

CITY           SKY/WX    TMP DP  RH WIND       PRES   REMARKS
DEFIANCE       NOT AVBL
FINDLAY        CLOUDY    28  22  78 W14       30.19S WCI  17
TOLEDO EXPRESS CLOUDY    29  20  69 W10       30.18R WCI  20
TOLEDO METCALF CLOUDY    30  17  58 W21       30.19R WCI  17
LIMA           CLOUDY    30  21  69 W12       30.21R WCI  20
$$

OHZ009>014-019>023-028>033-038-089-180300-
   NORTHEAST OHIO

CITY           SKY/WX    TMP DP  RH WIND       PRES   REMARKS
CLE-HOPKINS    FLURRIES  29  21  72 W15       30.17S WCI  18
CLE-LAKEFRONT  CLOUDY    31  22  69 SW18      30.14R WCI  19
CUY CO. ARPT   FLURRIES  32  25  74 W12G21    30.13R WCI  23
LORAIN-ELYRIA  CLOUDY    28  21  75 W12       30.15F WCI  18
ASHTABULA      CLOUDY    30  24  78 W14       30.09S WCI  19
AKRON-CANTON   FLURRIES  28  21  75 W12G20    30.13R WCI  18
WOOSTER        NOT AVBL
MANSFIELD      CLOUDY    26  22  84 W12       30.15F WCI  16
YOUNGSTOWN     FRZ DRZL  29  22  75 W14G22    30.10R WCI  18
$$

OHZ042-051>053-060>062-070>072-077>081-180300-
  SOUTHWEST OHIO

CITY           SKY/WX    TMP DP  RH WIND       PRES   REMARKS
CINC-COVINGTON CLOUDY    29  20  69 NW8       30.25R WCI  21
CINC-LUNKEN    CLOUDY    29  21  72 W7        30.29R WCI  22
HAMILTON       CLOUDY    29  22  75 NW8       30.28S WCI  21
DAYTON         NOT AVBL
WRIGHT-PAT AFB NOT AVBL
DAYTON GENERAL CLOUDY    26  21  81 NW10      30.24R WCI  16
WILMINGTON     CLOUDY    27  20  75 NW10      30.22S WCI  17
$$

OHZ036-037-039>041-045>050-054>059-063>069-073>076-082>088-180300-
  CENTRAL AND SOUTHEAST OHIO

CITY           SKY/WX    TMP DP  RH WIND       PRES   REMARKS
COLUMBUS       CLOUDY    27  21  78 W15       30.22R WCI  15
OSU AIRPORT    CLOUDY    27  21  78 W10G22    30.22R WCI  17
BOLTON FIELD   NOT AVBL
RICKENBACK AFB NOT AVBL
NEWARK         CLOUDY    29  22  75 W14       30.21R WCI  18
MARION         CLOUDY    27  20  75 W13       30.20S WCI  16
LANCASTER      CLOUDY    28  22  78 NW10G17   30.22R WCI  19
ZANESVILLE     CLOUDY    28  22  78 W10       30.19R WCI  19
NEW PHILLY     MIX PCPN  30  23  75 NW17G23   30.18R WCI  18
$$


USA.gov is the U.S. government's official web portal to all federal, state and local government web resources and services.